Location: Unspecified
(0.0000°N, 0.0000°E)
Time: 00:59:38
(UTC+00:00)

Courier 1B Rocket - Pass Details

Date: 18 December 2018
Orbit: 920 x 1202 km, 28.3° (Epoch: 16 January)

Event Time Altitude Azimuth Distance (km) Brightness Sun altitude
Rises 16:27:42 0° 292° (WNW) 4,019 8.8 20.3°
Reaches altitude 10° 16:30:31 10° 289° (WNW) 3,084 8.4 19.7°
Maximum altitude 16:38:08 62° 210° (SSW) 1,330 6.5 18.0°
Drops below altitude 10° 16:45:52 10° 131° (SE) 3,121 7.4 16.2°
Sets 16:48:44 0° 127° (SE) 4,069 8.0 15.6°
